• Em Portugal
  • Lista de países
  • Para 7 dias
  • Temperatura da água
  • Mapas de satélite
  • Mapa do tempo
  • Widgets de tempo
  • user-avatar
    Iniciar Sessão

    Previsão horária em Ischgl

    Hoje, 26 Maio, Sábado

    Tempo Temperatura Precipitação Vento Pressão Humidade
    00:00 +4°C° 0 mm 1 m/s 576 mmHg 86%
    01:00 +4°C° 0 mm 2 m/s 577 mmHg 82%
    02:00 +4°C° 0 mm 2 m/s 577 mmHg 82%
    03:00 +3°C° 0 mm 2 m/s 577 mmHg 82%
    04:00 +3°C° 0 mm 2 m/s 577 mmHg 82%
    05:00 +6°C° 0 mm 1 m/s 578 mmHg 79%
    06:00 +7°C° 0 mm 1 m/s 579 mmHg 75%
    07:00 +9°C° 0 mm 1 m/s 579 mmHg 72%
    08:00 +11°C° 0 mm 1 m/s 580 mmHg 64%
    09:00 +12°C° 0 mm 1 m/s 581 mmHg 56%
    10:00 +14°C° 0 mm 1 m/s 582 mmHg 48%
    11:00 +15°C° 0,2 mm 1 m/s 582 mmHg 46%
    12:00 +16°C° 0,2 mm 1 m/s 582 mmHg 45%
    13:00 +16°C° 0,2 mm 1 m/s 583 mmHg 43%
    14:00 +16°C° 0,4 mm 1 m/s 582 mmHg 45%
    15:00 +16°C° 0,4 mm 1 m/s 582 mmHg 46%
    16:00 +15°C° 0,4 mm 2 m/s 582 mmHg 48%
    17:00 +14°C° 0,5 mm 1 m/s 581 mmHg 58%
    18:00 +12°C° 0,5 mm 1 m/s 581 mmHg 68%
    19:00 +11°C° 0,5 mm 1 m/s 580 mmHg 78%
    20:00 +10°C° 0,5 mm 1 m/s 580 mmHg 80%
    21:00 +8°C° 0,5 mm 1 m/s 579 mmHg 82%
    22:00 +6°C° 0,5 mm 0 m/s 579 mmHg 85%
    23:00 +7°C° 0,1 mm 1 m/s 579 mmHg 84%

    Amanhã, 27 Maio, Domingo

    Tempo Temperatura Precipitação Vento Pressão Humidade
    00:00 +7°C° 0,1 mm 1 m/s 579 mmHg 84%
    01:00 +7°C° 0,1 mm 1 m/s 579 mmHg 83%
    02:00 +7°C° 0,1 mm 1 m/s 579 mmHg 83%
    03:00 +7°C° 0,1 mm 1 m/s 578 mmHg 83%
    04:00 +6°C° 0,1 mm 1 m/s 578 mmHg 83%
    05:00 +7°C° 0,1 mm 1 m/s 579 mmHg 80%
    06:00 +8°C° 0,1 mm 1 m/s 579 mmHg 77%
    07:00 +10°C° 0,1 mm 1 m/s 580 mmHg 75%
    08:00 +11°C° 0,3 mm 1 m/s 581 mmHg 67%
    09:00 +13°C° 0,3 mm 1 m/s 581 mmHg 59%
    10:00 +15°C° 0,3 mm 1 m/s 582 mmHg 51%
    11:00 +15°C° 0,9 mm 1 m/s 582 mmHg 49%
    12:00 +16°C° 0,9 mm 1 m/s 582 mmHg 48%
    13:00 +16°C° 0,9 mm 1 m/s 582 mmHg 47%
    14:00 +16°C° 0,9 mm 1 m/s 582 mmHg 49%
    15:00 +15°C° 0,9 mm 1 m/s 581 mmHg 50%
    16:00 +15°C° 0,9 mm 1 m/s 581 mmHg 51%
    17:00 +14°C° 0,8 mm 1 m/s 580 mmHg 60%
    18:00 +12°C° 0,8 mm 1 m/s 580 mmHg 69%
    19:00 +11°C° 0,8 mm 1 m/s 579 mmHg 78%
    20:00 +10°C° 0,3 mm 1 m/s 579 mmHg 78%
    21:00 +9°C° 0,3 mm 1 m/s 579 mmHg 77%
    22:00 +8°C° 0,3 mm 1 m/s 579 mmHg 77%
    23:00 +8°C° 0,1 mm 1 m/s 579 mmHg 76%

    Depois de amanhã, 28 Maio, Segunda-feira

    Tempo Temperatura Precipitação Vento Pressão Humidade
    00:00 +8°C° 0,1 mm 1 m/s 578 mmHg 76%
    01:00 +8°C° 0,1 mm 1 m/s 578 mmHg 75%
    02:00 +7°C° 0 mm 1 m/s 578 mmHg 74%
    03:00 +6°C° 0 mm 2 m/s 578 mmHg 73%
    04:00 +5°C° 0 mm 2 m/s 577 mmHg 72%
    05:00 +7°C° 0 mm 2 m/s 578 mmHg 69%
    06:00 +8°C° 0 mm 2 m/s 579 mmHg 66%
    07:00 +11°C° 0 mm 1 m/s 580 mmHg 63%
    08:00 +12°C° 0 mm 2 m/s 580 mmHg 56%
    09:00 +14°C° 0 mm 2 m/s 581 mmHg 49%
    10:00 +16°C° 0 mm 2 m/s 582 mmHg 41%
    11:00 +16°C° 0,2 mm 2 m/s 582 mmHg 41%
    12:00 +17°C° 0,2 mm 2 m/s 582 mmHg 41%
    13:00 +17°C° 0,2 mm 2 m/s 582 mmHg 40%
    14:00 +17°C° 0,2 mm 2 m/s 582 mmHg 45%
    15:00 +16°C° 0,2 mm 2 m/s 581 mmHg 49%
    16:00 +15°C° 0,2 mm 1 m/s 580 mmHg 54%
    17:00 +14°C° 0,6 mm 1 m/s 580 mmHg 62%
    18:00 +13°C° 0,6 mm 1 m/s 579 mmHg 71%
    19:00 +11°C° 0,6 mm 1 m/s 579 mmHg 79%
    20:00 +9°C° 0,1 mm 2 m/s 578 mmHg 82%
    21:00 +8°C° 0,1 mm 2 m/s 578 mmHg 84%
    22:00 +7°C° 0,1 mm 2 m/s 578 mmHg 86%
    23:00 +7°C° 0 mm 2 m/s 577 mmHg 86%

    29 Maio, Terça-feira

    Tempo Temperatura Precipitação Vento Pressão Humidade
    00:00 +6°C° 0 mm 2 m/s 577 mmHg 86%
    01:00 +6°C° 0 mm 2 m/s 577 mmHg 86%
    02:00 +5°C° 0 mm 2 m/s 576 mmHg 85%
    03:00 +5°C° 0 mm 2 m/s 576 mmHg 84%
    04:00 +4°C° 0 mm 2 m/s 576 mmHg 83%
    05:00 +6°C° 0 mm 2 m/s 576 mmHg 79%
    06:00 +7°C° 0 mm 2 m/s 577 mmHg 74%
    07:00 +9°C° 0 mm 2 m/s 578 mmHg 69%
    08:00 +12°C° 0 mm 2 m/s 579 mmHg 62%
    09:00 +13°C° 0 mm 2 m/s 579 mmHg 55%
    10:00 +15°C° 0 mm 2 m/s 580 mmHg 47%
    11:00 +16°C° 0,2 mm 2 m/s 580 mmHg 48%
    12:00 +16°C° 0,2 mm 2 m/s 580 mmHg 48%
    13:00 +17°C° 0,2 mm 2 m/s 580 mmHg 48%
    14:00 +16°C° 1 mm 2 m/s 579 mmHg 53%
    15:00 +15°C° 1 mm 2 m/s 578 mmHg 58%
    16:00 +14°C° 1 mm 2 m/s 578 mmHg 63%
    17:00 +13°C° 0,5 mm 2 m/s 577 mmHg 68%
    18:00 +13°C° 0,5 mm 2 m/s 577 mmHg 73%
    19:00 +12°C° 0,5 mm 2 m/s 577 mmHg 78%
    20:00 +9°C° 0,1 mm 2 m/s 576 mmHg 82%
    21:00 +8°C° 0,1 mm 2 m/s 576 mmHg 86%
    22:00 +6°C° 0,1 mm 2 m/s 575 mmHg 90%
    23:00 +6°C° 0 mm 2 m/s 575 mmHg 89%

    30 Maio, Quarta-feira

    Tempo Temperatura Precipitação Vento Pressão Humidade
    00:00 +6°C° 0 mm 2 m/s 575 mmHg 89%
    01:00 +5°C° 0 mm 2 m/s 575 mmHg 88%
    02:00 +5°C° 0 mm 2 m/s 574 mmHg 87%
    03:00 +4°C° 0 mm 2 m/s 574 mmHg 86%
    04:00 +4°C° 0 mm 2 m/s 574 mmHg 85%
    05:00 +6°C° 0 mm 2 m/s 574 mmHg 81%
    06:00 +8°C° 0 mm 1 m/s 575 mmHg 76%
    07:00 +10°C° 0 mm 1 m/s 576 mmHg 71%
    08:00 +12°C° 0,1 mm 1 m/s 577 mmHg 65%
    09:00 +13°C° 0,1 mm 1 m/s 577 mmHg 59%
    10:00 +15°C° 0,1 mm 1 m/s 578 mmHg 52%
    11:00 +15°C° 0,9 mm 1 m/s 578 mmHg 55%
    12:00 +15°C° 0,9 mm 2 m/s 578 mmHg 57%
    13:00 +15°C° 0,9 mm 2 m/s 578 mmHg 59%
    14:00 +14°C° 1,8 mm 2 m/s 577 mmHg 64%
    15:00 +14°C° 1,8 mm 2 m/s 577 mmHg 69%
    16:00 +13°C° 1,8 mm 2 m/s 576 mmHg 73%
    17:00 +12°C° 1,3 mm 1 m/s 576 mmHg 77%
    18:00 +11°C° 1,3 mm 1 m/s 576 mmHg 82%
    19:00 +10°C° 1,3 mm 1 m/s 575 mmHg 86%
    20:00 +10°C° 0,4 mm 1 m/s 575 mmHg 87%
    21:00 +9°C° 0,4 mm 1 m/s 575 mmHg 89%
    22:00 +8°C° 0,4 mm 1 m/s 575 mmHg 91%
    23:00 +7°C° 0 mm 1 m/s 575 mmHg 91%

    31 Maio, Quinta-feira

    Tempo Temperatura Precipitação Vento Pressão Humidade
    00:00 +7°C° 0 mm 1 m/s 574 mmHg 91%
    01:00 +6°C° 0 mm 1 m/s 574 mmHg 92%
    02:00 +6°C° 0,1 mm 1 m/s 574 mmHg 91%
    03:00 +5°C° 0,1 mm 1 m/s 574 mmHg 91%
    04:00 +5°C° 0,1 mm 1 m/s 573 mmHg 91%
    05:00 +7°C° 0,1 mm 1 m/s 574 mmHg 87%
    06:00 +8°C° 0,1 mm 1 m/s 575 mmHg 82%
    07:00 +9°C° 0,1 mm 0 m/s 576 mmHg 78%
    08:00 +10°C° 0,3 mm 0 m/s 577 mmHg 73%
    09:00 +13°C° 0,3 mm 1 m/s 577 mmHg 67%
    10:00 +14°C° 0,3 mm 1 m/s 578 mmHg 62%
    11:00 +14°C° 0,8 mm 1 m/s 578 mmHg 62%
    12:00 +15°C° 0,8 mm 1 m/s 578 mmHg 62%
    13:00 +15°C° 0,8 mm 2 m/s 578 mmHg 61%
    14:00 +14°C° 1,4 mm 2 m/s 577 mmHg 65%
    15:00 +14°C° 1,4 mm 2 m/s 577 mmHg 69%
    16:00 +13°C° 1,4 mm 2 m/s 576 mmHg 73%
    17:00 +12°C° 0,9 mm 1 m/s 576 mmHg 77%
    18:00 +11°C° 0,9 mm 1 m/s 576 mmHg 81%
    19:00 +11°C° 0,9 mm 1 m/s 576 mmHg 85%
    20:00 +10°C° 0,5 mm 1 m/s 575 mmHg 88%
    21:00 +9°C° 0,5 mm 1 m/s 575 mmHg 90%
    22:00 +8°C° 0,5 mm 1 m/s 575 mmHg 93%
    23:00 +7°C° 0,5 mm 1 m/s 574 mmHg 94%
    Mostrar mais